{"data":{"norad_id":81536,"intl_designator":"","name":"UNKNOWN","alt_names":[],"object_type":"UNKNOWN","status":"UNKNOWN","operator":null,"country":null,"launch_date":null,"launch_site_code":null,"launch_vehicle":null,"mission":null,"orbit_class":"UNKNOWN","rcs_meters":null,"size_class":null,"mass_kg":null,"dimensions":null,"purposes":[],"wikipedia_slug":null,"has_3d_model":false,"image_url":null,"decayed_at":null,"tle_current":{"epoch":"2026-05-24T02:17:24.421056Z","epoch_age_seconds":163765,"freshness":"FRESH","line1":"1 81536U          26144.09542154  .00000395  00000+0  26734-2 0  9990","line2":"2 81536 101.9667  12.1566 0029567 346.9208 168.6490 12.56071010572198","mean_motion":12.5607101,"eccentricity":0.0029567,"inclination_deg":101.9667,"raan_deg":12.1566,"arg_perigee_deg":346.9208,"mean_anomaly_deg":168.649,"bstar":0.0026734,"rev_number":57219,"period_min":114.64319998915,"perigee_km":1416.0902843024,"apogee_km":1462.3173474831,"semimajor_km":7817.3408158927,"source":"CELESTRAK","updated_at":"2026-05-25T13:38:11.076469Z"}}}